Regional Weather Roundup
Issued by NWS Binghamton, NY

Home | Current Version | Previous Version | Text Only | Print | Product List | Glossary On
Versions: 1 2 3 4 5 6 7 8 9 10 11 12 13 14 15 16 17 18 19 20 21 22 23 24 25 26 27
000
ASUS41 KBGM 011310
RWRBGM

REGIONAL WEATHER ROUNDUP
NATIONAL WEATHER SERVICE BINGHAMTON NY
900 AM EDT SAT OCT 01 2016

Note: "fair" indicates few or no clouds below 12,000 feet with no
significant weather and/or obstructions to visibility.

* = Station(s) that does not report precipitation, such as rain,
snow, etc, also no thunder or fog.

NYZ009-015>018-022>025-036-037-044>046-055>057-062-011400
...Central New York...

CITY           SKY/WX    TMP DP  RH WIND       PRES   REMARKS
Binghamton     CLOUDY    51  51 100 E10       30.23R
Cortland       CLOUDY    54  52  94 E7        30.23S
Dansville      CLOUDY    57  52  83 SE3       30.19F
Elmira         CLOUDY    56  51  84 SE5       30.21S
Ithaca         CLOUDY    54  52  93 CALM      30.24R
Hamilton       CLOUDY    55  50  82 SE5       30.25S
Hornell        RAIN      54  52  94 S3        30.22F
Monticello     CLOUDY    52  50  93 E9        30.27S
Norwich        CLOUDY    54  48  82 CALM      30.26S
Oneonta        SUNNY     52  52 100 SE7       30.25R
Penn Yan       CLOUDY    56  52  86 SE7       30.22S
Rome           CLOUDY    52  50  93 SE8       30.29S
Sidney         CLOUDY    55  55 100 CALM      30.25R
Syracuse       CLOUDY    52  48  87 E9        30.23F
$$

PAZ038>040-043-044-047-048-072-011400
...Northeast Pennsylvania...

CITY           SKY/WX    TMP DP  RH WIND       PRES   REMARKS
Hazleton       CLOUDY    54  54 100 E7        30.23F FOG
Scranton       CLOUDY    57  52  83 NE8       30.21F
$$
&&
KEY
WCI = Wind Chill Index
VSB = Visibility
HX  = Heat Index
$$




USA.gov is the U.S. government's official web portal to all federal, state and local government web resources and services.